[[{"header":{"parameterUnit":"m.s-1","parameterCategory":1,"la1":30.2991,"la2":30.254,"lo1":-89.0895,"lo2":-89.0444,"dy":0.0017,"dx":0.0017,"nx":28,"ny":28,"refTime":"2024-10-18T03:00:00:Z","depth":0,"parameterNumber":2,"parameterNumberName":"U-component_of_WINDS"},"data":[0,0,0,0,0,0,0,0,0,0,0,0,0,0,0,0,0,0,0,0,0,0,0,0,0,0,0,0,0,0,0,0,0,0,0,0,0,0,0,0,0,0,0,0,0,0,0,0,0,0,0,0,0,0,0,0,0,0,-4.5769,-4.5769,0,-4.5728,-4.5728,-4.5727,-4.5516,-4.551,-4.5505,-4.5501,-4.5463,-4.5466,-4.547,0,0,0,0,0,0,0,0,0,0,0,0,0,-4.5666,-4.5669,-4.5769,-4.5769,-4.5768,-4.5728,-4.5728,-4.5727,-4.5516,-4.551,-4.5504,-4.5498,-4.5461,-4.5466,-4.547,0,0,0,0,0,0,0,0,0,0,0,0,0,-4.5677,-4.567,-4.5769,-4.5658,-4.5648,-4.5729,-4.5728,-4.5727,-4.5518,-4.551,-4.5503,-4.5495,-4.546,-4.5465,-4.5471,-4.5657,0,0,-4.5488,-4.549,0,0,0,0,0,0,0,0,-4.5677,-4.5681,-4.5675,-4.5666,-4.5654,-4.5619,-4.5677,-4.5704,-4.552,-4.5567,-4.5501,-4.5492,-4.5521,-4.5521,-4.553,-4.5655,-4.5653,-4.5488,-4.5491,-4.5494,-4.5495,0,0,0,0,0,0,0,-4.5676,-4.5682,-4.5753,-4.5675,-4.5663,-4.5611,-4.5604,-4.5681,-4.5587,-4.5562,-4.5547,-4.5545,-4.5514,-4.5525,-4.5528,-4.5653,-4.5488,-4.5493,-4.5496,-4.5498,-4.5926,-4.5933,0,0,0,0,0,0,-4.5691,-4.5682,-4.5754,-4.5752,-4.5647,-4.5619,-4.5611,-4.5638,-4.5586,-4.557,-4.5551,-4.5535,-4.552,-4.5521,-4.5526,-4.5738,-4.5494,-4.5499,-4.5502,-4.5918,-4.5928,-4.5936,0,0,0,0,0,0,-4.5689,-4.5699,-4.5756,-4.5713,-4.5716,-4.5629,-4.5661,-4.5641,-4.5652,-4.5577,-4.556,-4.558,-4.5514,-4.5518,-4.5625,-4.5733,-4.5501,-4.5507,-4.5908,-4.5921,-4.5932,-4.6165,0,0,0,0,0,0,-4.5687,-4.57,-4.5769,-4.5716,-4.5719,-4.5856,-4.5667,-4.5646,-4.5662,-4.564,-4.56,-4.5586,-4.5508,-4.5618,-4.563,-4.5737,-4.5511,-4.5898,-4.5914,-4.5928,-4.6148,-4.6184,-4.6215,0,0,0,0,0,-4.5684,-4.5838,-4.5774,-4.5784,-4.5804,-4.5863,-4.5864,-4.5771,-4.5672,-4.5741,-4.5692,-4.5587,-4.572,-4.5631,-4.5643,-4.5753,-4.5891,-4.5909,-4.5927,-4.6132,-4.6177,-4.6214,0,0,0,0,0,0,-4.5908,-4.5829,-4.5757,-4.5898,-4.5888,-4.5827,-4.5911,-4.5821,-4.5841,-4.582,-4.5704,-4.5697,-4.5821,-4.5798,-4.5699,-4.5929,-4.5787,-4.5809,-4.5939,-4.5981,-4.6014,-4.6016,-4.5515,0,0,0,0,0,-4.5973,-4.6026,-4.5955,-4.6086,-4.6085,-4.6,-4.6022,-4.595,-4.5936,-4.5932,-4.5891,-4.5883,-4.5922,-4.595,-4.5983,-4.6144,-4.6131,-4.6226,-4.6259,-4.6287,-4.6307,-4.6389,-4.6429,-4.5996,-4.5995,-4.5995,0,0,-4.6109,-4.6072,-4.6113,-4.613,-4.6114,-4.6172,-4.5997,-4.6067,-4.6109,-4.5942,-4.604,-4.6011,-4.5993,-4.6128,-4.6185,-4.6112,-4.6424,-4.6311,-4.6334,-4.6337,-4.6412,-4.6453,-4.6489,-4.6008,-4.6006,-4.6004,0,0,-4.6385,-4.6364,-4.6469,-4.6457,-4.6435,-4.6377,-4.6403,-4.6355,-4.6328,-4.6424,-4.63,-4.6349,-4.642,-4.6412,-4.6418,-4.6692,-4.6595,-4.6706,-4.6882,-4.6963,-4.6997,-4.7027,-4.7123,-4.7159,-4.6726,-4.6727,-4.6727,0,-4.6557,-4.6639,-4.6535,-4.6612,-4.6623,-4.6474,-4.658,-4.6573,-4.6564,-4.6575,-4.6494,-4.6578,-4.6557,-4.6686,-4.6753,-4.6763,-4.6789,-4.6709,-4.7,-4.7029,-4.7055,-4.7146,-4.7182,-4.674,-4.6738,-4.6737,-4.6736,0,-4.685,-4.6909,-4.6997,-4.6989,-4.701,-4.7102,-4.7013,-4.7046,-4.6974,-4.6925,-4.7025,-4.6993,-4.7016,-4.7042,-4.6973,-4.7162,-4.7117,-4.7021,-4.6875,-4.7112,-4.7194,-4.7228,-4.6759,-4.6754,-4.675,-4.6747,0,0,-4.7265,-4.7199,-4.7233,-4.7226,-4.7191,-4.7235,-4.732,-4.7341,-4.7371,-4.7371,-4.7438,-4.7502,-4.7411,-4.7418,-4.7346,-4.7418,-4.7635,-4.7311,-4.7309,-4.7371,-4.784,-4.7912,-4.7954,-4.7572,-4.7578,-4.7583,-4.7841,0,-4.7528,-4.7666,-4.7576,-4.773,-4.7782,-4.7642,-4.7715,-4.7703,-4.766,-4.7698,-4.7651,-4.7697,-4.7575,-4.7577,-4.7642,-4.7595,-4.7727,-4.7575,-4.7633,-4.7636,-4.7639,-4.7997,-4.8073,-4.8318,-4.7873,-4.7878,-4.7882,0,-4.7852,-4.7863,-4.8022,-4.7975,-4.7993,-4.8061,-4.8072,-4.8111,-4.8094,-4.8057,-4.8065,-4.7975,-4.8056,-4.7915,-4.8023,-4.7922,-4.7941,-4.7922,-4.7929,-4.7929,-4.7772,-4.8005,-4.8394,-4.8431,-4.7933,-4.7929,-4.7925,0,-4.8136,-4.8191,-4.8292,-4.8292,-4.824,-4.8291,-4.8272,-4.8247,-4.8265,-4.8276,-4.8286,-4.8307,-4.8319,-4.8337,-4.8256,-4.8161,-4.8376,-4.8228,-4.8347,-4.835,-4.8397,-4.8394,-4.8793,-4.8414,-4.8413,-4.8412,-4.8411,0,-4.8437,-4.854,-4.8419,-4.8481,-4.8591,-4.8487,-4.86,-4.8566,-4.8545,-4.8599,-4.848,-4.8534,-4.8424,-4.8466,-4.8404,-4.8503,-4.8509,-4.8482,-4.8464,-4.8491,-4.8495,-4.85,-4.848,-4.8422,-4.842,-4.8418,-4.8416,0,-4.8772,-4.8695,-4.8796,-4.8739,-4.8727,-4.881,-4.8761,-4.8817,-4.8766,-4.8835,-4.8846,-4.8767,-4.881,-4.8731,-4.8766,-4.8724,-4.8862,-4.8818,-4.8867,-4.8853,-4.8976,-4.8965,-4.939,-4.944,-4.9032,-4.9036,-4.9039,0,-4.8968,-4.9043,-4.8993,-4.9019,-4.9006,-4.9052,-4.9068,-4.897,-4.8993,-4.8978,-4.9036,-4.907,-4.909,-4.9167,-4.9113,-4.9139,-4.9094,-4.9241,-4.9097,-4.9122,-4.9094,-4.9089,-4.9095,-4.927,-4.9275,-4.9279,-4.9283,0,-4.9323,-4.9281,-4.9309,-4.9325,-4.9349,-4.9357,-4.9356,-4.9386,-4.9281,-4.9313,-4.9355,-4.9372,-4.9406,-4.9441,-4.9453,-4.9435,-4.9342,-4.9329,-4.9357,-4.9385,-4.9409,-4.9396,-4.8946,-4.9319,-4.9315,-4.9313,-4.9311,-4.9309,-4.9592,-4.9651,-4.9625,-4.9661,-4.965,-4.9652,-4.9701,-4.9655,-4.9688,-4.9707,-4.9648,-4.9704,-4.9684,-4.9691,-4.9683,-4.9726,-4.966,-4.9703,-4.9713,-4.9724,-4.9742,-4.9405,-4.9728,-4.9727,-4.9726,-4.9725,-4.9724,0,-4.9939,-4.9915,-4.9949,-4.9951,-4.9979,-4.9888,-4.9883,-4.9913,-4.9963,-4.9953,-4.9975,-5.0024,-5.0057,-5.0007,-5.0031,-5.0076,-5.0034,-5.0085,-5.008,-5.0077,-4.9801,-4.9772,-5.0119,-5.0119,-5.0119,-5.0119,-5.0118,-5.0118,-5.0122,-5.0217,-5.0173,-5.0261,-5.0236,-5.0288,-5.0293,-5.0295,-5.0285,-5.0344,-5.0371,-5.0337,-5.031,-5.0332,-5.0358,-5.0343,-5.0356,-5.0423,-5.0393,-5.0135,-5.0096,-5.006,-5.0032,-5.0427,-5.0428,-5.0664,-5.0666,-5.0668]},{"header":{"parameterUnit":"m.s-1","parameterCategory":1,"la1":30.2991,"la2":30.254,"lo1":-89.0895,"lo2":-89.0444,"dy":0.0017,"dx":0.0017,"nx":28,"ny":28,"refTime":"2024-10-18T03:00:00:Z","depth":0,"parameterNumber":3,"parameterNumberName":"V-component_of_WINDS"},"data":[0,0,0,0,0,0,0,0,0,0,0,0,0,0,0,0,0,0,0,0,0,0,0,0,0,0,0,0,0,0,0,0,0,0,0,0,0,0,0,0,0,0,0,0,0,0,0,0,0,0,0,0,0,0,0,0,0,0,-1.9711,-1.9712,0,-1.9775,-1.9776,-1.9777,-1.9801,-1.9801,-1.9801,-1.9801,-1.9864,-1.9866,-1.9867,0,0,0,0,0,0,0,0,0,0,0,0,0,-1.9606,-1.9607,-1.9711,-1.9712,-1.9713,-1.9775,-1.9776,-1.9777,-1.9801,-1.9801,-1.9801,-1.9801,-1.9863,-1.9865,-1.9868,0,0,0,0,0,0,0,0,0,0,0,0,0,-1.9659,-1.9608,-1.9711,-1.9733,-1.9735,-1.9775,-1.9776,-1.9777,-1.9802,-1.9801,-1.9801,-1.9801,-1.9862,-1.9865,-1.9868,-1.989,0,0,-1.9876,-1.9877,0,0,0,0,0,0,0,0,-1.9656,-1.9662,-1.9729,-1.9731,-1.9734,-1.978,-1.9762,-1.9815,-1.9802,-1.9776,-1.9801,-1.9801,-1.9836,-1.9841,-1.9853,-1.9893,-1.9896,-1.9877,-1.9878,-1.9879,-1.988,0,0,0,0,0,0,0,-1.9652,-1.966,-1.9737,-1.973,-1.9733,-1.9738,-1.9745,-1.9772,-1.9807,-1.9778,-1.978,-1.9788,-1.9837,-1.9851,-1.9855,-1.9897,-1.9876,-1.9879,-1.9881,-1.9882,-1.9955,-1.9955,0,0,0,0,0,0,-1.9645,-1.9657,-1.9734,-1.9738,-1.9694,-1.974,-1.9748,-1.9766,-1.9807,-1.9813,-1.9788,-1.9789,-1.9846,-1.9852,-1.9857,-1.9885,-1.9879,-1.9882,-1.9884,-1.9954,-1.9955,-1.9955,0,0,0,0,0,0,-1.9643,-1.9652,-1.9732,-1.9698,-1.9709,-1.9742,-1.9762,-1.9767,-1.978,-1.9814,-1.982,-1.9795,-1.9846,-1.9854,-1.9881,-1.9887,-1.9883,-1.9886,-1.9954,-1.9955,-1.9955,-1.994,0,0,0,0,0,0,-1.964,-1.9651,-1.9661,-1.9698,-1.971,-1.9756,-1.9762,-1.9768,-1.9785,-1.9787,-1.9822,-1.9828,-1.9847,-1.9877,-1.9884,-1.9891,-1.9888,-1.9954,-1.9954,-1.9955,-1.994,-1.994,-1.994,0,0,0,0,0,-1.9636,-1.9654,-1.9661,-1.9671,-1.9724,-1.9757,-1.9763,-1.9785,-1.9786,-1.9795,-1.9816,-1.9827,-1.9885,-1.988,-1.9888,-1.9896,-1.9953,-1.9954,-1.9955,-1.994,-1.994,-1.994,0,0,0,0,0,0,-1.9617,-1.966,-1.9668,-1.97,-1.9724,-1.9761,-1.9774,-1.9785,-1.9809,-1.981,-1.9834,-1.9842,-1.9867,-1.9884,-1.9877,-1.9918,-1.992,-1.9922,-1.9906,-1.9906,-1.9906,-1.9901,-1.989,0,0,0,0,0,-1.9616,-1.964,-1.9676,-1.97,-1.9712,-1.974,-1.9756,-1.977,-1.9796,-1.9807,-1.983,-1.9854,-1.9878,-1.9893,-1.9917,-1.9942,-1.9949,-1.9951,-1.9951,-1.9951,-1.9952,-1.9965,-1.9966,-1.9957,-1.9957,-1.9957,0,0,-1.9616,-1.9642,-1.9656,-1.9697,-1.9718,-1.9741,-1.9749,-1.9774,-1.979,-1.981,-1.9838,-1.9855,-1.9884,-1.991,-1.9923,-1.9925,-1.9956,-1.9952,-1.9951,-1.9953,-1.9966,-1.9967,-1.9967,-1.9958,-1.9958,-1.9957,0,0,-1.9626,-1.9649,-1.967,-1.9691,-1.9722,-1.974,-1.9745,-1.978,-1.9792,-1.982,-1.9835,-1.9854,-1.9895,-1.9914,-1.9929,-1.9943,-1.9953,-1.995,-1.9949,-1.9961,-1.9961,-1.9962,-1.9966,-1.9967,-1.9951,-1.9951,-1.9951,0,-1.9621,-1.9657,-1.968,-1.9703,-1.972,-1.9739,-1.9759,-1.9778,-1.9815,-1.9825,-1.9827,-1.9877,-1.9897,-1.9927,-1.993,-1.9942,-1.9947,-1.9946,-1.996,-1.9961,-1.9962,-1.9965,-1.9967,-1.9951,-1.9951,-1.9951,-1.9951,0,-1.9648,-1.9673,-1.9686,-1.9722,-1.974,-1.9762,-1.9786,-1.9801,-1.9813,-1.9831,-1.9857,-1.9882,-1.991,-1.9918,-1.9931,-1.995,-1.995,-1.9955,-1.9958,-1.9961,-1.9965,-1.9967,-1.995,-1.995,-1.995,-1.995,0,0,-1.965,-1.9696,-1.9701,-1.9716,-1.9751,-1.9769,-1.9791,-1.9819,-1.983,-1.9854,-1.9872,-1.9904,-1.9909,-1.9926,-1.994,-1.995,-1.9958,-1.9954,-1.9955,-1.9954,-1.9978,-1.9974,-1.9975,-1.9964,-1.9965,-1.9965,-1.9976,0,-1.9664,-1.9705,-1.9725,-1.9756,-1.9777,-1.9794,-1.9812,-1.9834,-1.9851,-1.987,-1.9887,-1.991,-1.9915,-1.9925,-1.9936,-1.9955,-1.9963,-1.9954,-1.998,-1.998,-1.9972,-1.9978,-1.9974,-1.9983,-1.9977,-1.9978,-1.9978,0,-1.9687,-1.9711,-1.9744,-1.9774,-1.9784,-1.98,-1.9826,-1.9845,-1.9869,-1.988,-1.9897,-1.991,-1.9931,-1.9932,-1.996,-1.9954,-1.9965,-1.9975,-1.9976,-1.9979,-1.998,-1.998,-1.9986,-1.9987,-1.9981,-1.9981,-1.998,0,-1.9683,-1.9724,-1.9748,-1.9761,-1.9797,-1.9807,-1.9823,-1.9847,-1.9861,-1.9883,-1.9893,-1.9916,-1.9929,-1.9947,-1.9965,-1.9964,-1.9991,-1.9993,-1.9999,-1.9999,-2.0005,-2.0004,-2.0012,-2.0012,-2.0012,-2.0012,-2.0012,0,-1.9697,-1.9716,-1.9747,-1.9762,-1.9783,-1.9805,-1.9825,-1.9841,-1.9862,-1.9879,-1.9895,-1.991,-1.9934,-1.9952,-1.9966,-1.9986,-1.9992,-2.0,-2.0004,-1.9999,-1.9998,-2.0007,-2.0006,-2.0012,-2.0012,-2.0012,-2.0012,0,-1.9697,-1.9719,-1.9746,-1.9777,-1.9785,-1.98,-1.9826,-1.984,-1.9856,-1.9877,-1.9883,-1.9908,-1.993,-1.995,-1.9978,-1.9988,-2.0008,-2.0013,-2.0,-2.0002,-2.0007,-2.0006,-2.002,-2.0023,-2.0021,-2.0021,-2.0021,0,-1.9705,-1.972,-1.9752,-1.9765,-1.978,-1.98,-1.9815,-1.9836,-1.985,-1.9878,-1.9888,-1.9911,-1.993,-1.9963,-1.9983,-2.0005,-2.001,-2.0013,-2.0013,-2.0007,-2.0009,-2.0008,-2.0009,-2.0013,-2.0013,-2.0013,-2.0013,0,-1.9715,-1.9724,-1.9745,-1.9769,-1.9786,-1.9806,-1.9827,-1.9836,-1.986,-1.9875,-1.9897,-1.9912,-1.9941,-1.9963,-1.9986,-2.0,-2.001,-2.0013,-2.0015,-2.001,-2.0002,-2.0006,-1.9999,-2.0012,-2.0012,-2.0012,-2.0012,-2.0012,-1.9718,-1.9732,-1.9756,-1.9778,-1.9795,-1.9813,-1.9828,-1.9845,-1.9865,-1.989,-1.99,-1.9923,-1.9944,-1.9977,-1.999,-2.0007,-2.0009,-2.0013,-2.0014,-2.0014,-2.0013,-1.9999,-2.0011,-2.0011,-2.0011,-2.0011,-2.0011,0,-1.9728,-1.9744,-1.9764,-1.9792,-1.9809,-1.9817,-1.9839,-1.9852,-1.9872,-1.9892,-1.991,-1.9934,-1.9955,-1.9976,-1.9997,-2.0006,-2.0011,-2.0011,-2.0011,-2.0013,-2.001,-2.0006,-2.0007,-2.0007,-2.0007,-2.0007,-2.0007,-2.0007,-1.9735,-1.9758,-1.977,-1.98,-1.9816,-1.9838,-1.985,-1.9866,-1.9882,-1.9909,-1.9926,-1.9939,-1.9959,-1.9981,-2.0,-2.0005,-2.0012,-2.001,-2.0017,-2.0014,-2.0014,-2.0014,-2.001,-2.0012,-2.0012,-2.0019,-2.0019,-2.0019]}]]